KC9DRE Weather Reports


time (UTC)temp
C
wind
direction
speed
KPH
gust
KPH
rain 1hr
cm
rain 24hr
cm
rain mn
cm
humidity
%
barometer
mb
20260504035721 12 247 0.0 3.2 0.00 0.00 0.00 58 1013.3
20260504035219 12 186 1.6 3.2 0.00 0.00 0.00 58 1013.3
20260504034716 13 310 1.6 1.6 0.00 0.00 0.00 58 1013.4
20260504034213 13 278 0.0 1.6 0.00 0.00 0.00 58 1013.7
20260504033711 12 308 1.6 1.6 0.00 0.00 0.00 58 1013.4
20260504033208 12 271 0.0 0.0 0.00 0.00 0.00 59 1013.5
20260504032705 12 217 1.6 1.6 0.00 0.00 0.00 59 1013.5
20260504032202 12 202 1.6 1.6 0.00 0.00 0.00 59 1013.7
20260504031659 12 242 1.6 1.6 0.00 0.00 0.00 59 1013.8
20260504031155 12 280 0.0 1.6 0.00 0.00 0.00 60 1013.7
20260504030652 12 251 0.0 3.2 0.00 0.00 0.00 63 1013.7
20260504030149 11 275 0.0 1.6 0.00 0.00 0.00 65 1013.7
20260504025645 10 235 1.6 3.2 0.00 0.00 0.00 67 1014.0
20260504025142 10 269 0.0 0.0 0.00 0.00 0.00 70 1014.0
20260504024640 10 269 0.0 0.0 0.00 0.00 0.00 73 1013.9
20260504024136 10 258 0.0 0.0 0.00 0.00 0.00 74 1014.1
20260504023633 9 284 0.0 0.0 0.00 0.00 0.00 77 1013.9
20260504023129 8 269 0.0 0.0 0.00 0.00 0.00 81 1014.0
20260504022625 8 276 0.0 0.0 0.00 0.00 0.00 81 1014.0
20260504022121 8 271 0.0 0.0 0.00 0.00 0.00 81 1013.9
20260504021620 8 261 0.0 0.0 0.00 0.00 0.00 80 1014.1
20260504021116 8 260 0.0 0.0 0.00 0.00 0.00 80 1014.2
20260504020613 8 259 0.0 0.0 0.00 0.00 0.00 79 1014.0
20260504020109 8 266 0.0 0.0 0.00 0.00 0.00 81 1014.0
20260504015606 8 266 0.0 0.0 0.00 0.00 0.00 82 1014.1
20260504015101 8 270 0.0 0.0 0.00 0.00 0.00 81 1014.3
20260504014558 8 270 0.0 0.0 0.00 0.00 0.00 79 1014.2
20260504014055 8 270 0.0 0.0 0.00 0.00 0.00 79 1014.1
20260504013553 9 265 0.0 0.0 0.00 0.00 0.00 77 1014.1
20260504013049 10 265 0.0 0.0 0.00 0.00 0.00 75 1014.1
20260504012547 10 265 0.0 0.0 0.00 0.00 0.00 74 1014.1
20260504012045 10 265 0.0 0.0 0.00 0.00 0.00 72 1014.2
20260504011541 10 265 0.0 0.0 0.00 0.00 0.00 69 1014.2
20260504011037 11 264 0.0 0.0 0.00 0.00 0.00 67 1014.2
20260504010533 11 265 0.0 0.0 0.00 0.00 0.00 65 1014.0
20260504010029 12 262 0.0 0.0 0.00 0.00 0.00 62 1014.4
20260504005526 12 270 0.0 1.6 0.00 0.00 0.00 61 1014.1
20260504005024 13 266 0.0 0.0 0.00 0.00 0.00 58 1014.3
20260504004521 13 267 0.0 0.0 0.00 0.00 0.00 55 1014.3
20260504004018 15 261 0.0 1.6 0.00 0.00 0.00 54 1014.1
20260504003514 15 270 0.0 0.0 0.00 0.00 0.00 52 1013.8
20260504003011 15 271 0.0 4.8 0.00 0.00 0.00 50 1013.8
20260504002508 15 276 0.0 1.6 0.00 0.00 0.00 49 1013.9
20260504002006 15 258 0.0 1.6 0.00 0.00 0.00 50 1013.9
20260504001503 16 263 0.0 4.8 0.00 0.00 0.00 46 1013.9
20260504000959 16 270 1.6 3.2 0.00 0.00 0.00 46 1013.5
20260504000457 16 265 3.2 4.8 0.00 0.00 0.00 46 1013.7
20260503235954 16 270 3.2 4.8 0.00 0.00 0.00 45 1013.7
20260503235451 16 261 0.0 6.4 0.00 0.00 0.00 45 1013.5
20260503234948 16 253 3.2 4.8 0.00 0.00 0.00 44 1013.7
20260503234446 17 289 4.8 11.3 0.00 0.00 0.00 43 1013.6
20260503233944 17 186 3.2 4.8 0.00 0.00 0.00 43 1013.6
20260503233440 17 261 3.2 6.4 0.00 0.00 0.00 42 1013.5
20260503232936 17 256 3.2 11.3 0.00 0.00 0.00 42 1013.6
20260503232433 17 278 1.6 4.8 0.00 0.00 0.00 43 1013.6
20260503231932 17 218 0.0 4.8 0.00 0.00 0.00 42 1013.6
20260503231429 17 156 3.2 9.7 0.00 0.00 0.00 41 1013.8
20260503230925 17 275 0.0 3.2 0.00 0.00 0.00 41 1013.6
20260503230421 17 203 1.6 17.7 0.00 0.00 0.00 41 1013.7
20260503225920 17 270 8.0 11.3 0.00 0.00 0.00 41 1013.7
20260503225416 18 218 3.2 11.3 0.00 0.00 0.00 41 1013.7
20260503224911 18 264 3.2 17.7 0.00 0.00 0.00 41 1013.7
20260503224409 18 282 1.6 3.2 0.00 0.00 0.00 40 1013.9
20260503223906 18 279 4.8 6.4 0.00 0.00 0.00 39 1014.0
20260503223404 18 246 6.4 6.4 0.00 0.00 0.00 39 1014.2
20260503222859 18 303 3.2 6.4 0.00 0.00 0.00 38 1014.3
20260503222358 18 200 6.4 11.3 0.00 0.00 0.00 38 1014.5
20260503221856 18 339 6.4 9.7 0.00 0.00 0.00 38 1014.7
20260503221354 17 245 6.4 6.4 0.00 0.00 0.00 39 1014.7
20260503220850 17 192 4.8 6.4 0.00 0.00 0.00 41 1014.6
20260503220347 17 272 1.6 6.4 0.00 0.00 0.00 39 1014.6
20260503215844 18 235 3.2 16.1 0.00 0.00 0.00 39 1015.1
20260503215341 18 261 1.6 14.5 0.00 0.00 0.00 40 1015.1
20260503214839 18 60 3.2 9.7 0.00 0.00 0.00 38 1015.0
20260503214336 18 83 1.6 6.4 0.00 0.00 0.00 41 1014.7
20260503213833 17 246 4.8 4.8 0.00 0.00 0.00 40 1014.9
20260503213331 18 264 3.2 14.5 0.00 0.00 0.00 40 1015.1
20260503212827 18 253 6.4 11.3 0.00 0.00 0.00 38 1015.6
20260503212325 18 303 4.8 6.4 0.00 0.00 0.00 37 1015.6
20260503211822 19 286 6.4 12.9 0.00 0.00 0.00 36 1015.7
20260503211319 20 257 6.4 9.7 0.00 0.00 0.00 35 1015.6
20260503210819 20 288 6.4 12.9 0.00 0.00 0.00 36 1015.9
20260503210317 19 285 1.6 3.2 0.00 0.00 0.00 37 1015.8
20260503205811 19 235 1.6 11.3 0.00 0.00 0.00 36 1015.9
20260503205308 19 290 1.6 9.7 0.00 0.00 0.00 35 1015.7
20260503204805 19 216 3.2 4.8 0.00 0.00 0.00 36 1015.4
20260503204303 19 260 3.2 6.4 0.00 0.00 0.00 36 1015.5
20260503203800 19 186 3.2 16.1 0.00 0.00 0.00 35 1015.6
20260503203257 18 253 1.6 11.3 0.00 0.00 0.00 35 1015.7
20260503202754 19 184 6.4 11.3 0.00 0.00 0.00 36 1016.2
20260503202252 19 282 1.6 9.7 0.00 0.00 0.00 34 1016.2
20260503201749 19 267 1.6 9.7 0.00 0.00 0.00 37 1016.3
20260503201247 18 274 1.6 3.2 0.00 0.00 0.00 36 1016.3
20260503200743 18 294 3.2 12.9 0.00 0.00 0.00 34 1016.3
20260503200239 18 233 3.2 9.7 0.00 0.00 0.00 36 1016.6
20260503195736 18 246 6.4 11.3 0.00 0.00 0.00 34 1016.7
20260503195233 18 286 6.4 9.7 0.00 0.00 0.00 34 1016.9
20260503194731 18 262 4.8 6.4 0.00 0.00 0.00 36 1016.7
20260503194226 19 160 3.2 12.9 0.00 0.00 0.00 32 1017.0
20260503193723 18 282 4.8 16.1 0.00 0.00 0.00 35 1017.1
20260503193219 18 261 3.2 11.3 0.00 0.00 0.00 35 1017.0
20260503192715 18 258 4.8 11.3 0.00 0.00 0.00 35 1017.3
20260503192210 18 309 6.4 9.7 0.00 0.00 0.00 32 1017.5
20260503191707 18 164 6.4 12.9 0.00 0.00 0.00 34 1017.6
20260503191204 18 282 4.8 6.4 0.00 0.00 0.00 34 1017.8
20260503190701 18 238 8.0 14.5 0.00 0.00 0.00 33 1018.0
20260503190158 18 4 6.4 12.9 0.00 0.00 0.00 34 1017.9
20260503185655 18 260 4.8 9.7 0.00 0.00 0.00 32 1018.1
20260503185150 18 268 1.6 9.7 0.00 0.00 0.00 34 1018.0
20260503184645 18 254 3.2 11.3 0.00 0.00 0.00 35 1018.3
20260503184142 18 291 4.8 11.3 0.00 0.00 0.00 32 1018.4
20260503183638 18 283 8.0 11.3 0.00 0.00 0.00 31 1018.4
20260503183136 18 260 1.6 11.3 0.00 0.00 0.00 32 1018.4
20260503182634 18 122 4.8 12.9 0.00 0.00 0.00 32 1018.5
20260503182132 18 281 3.2 11.3 0.00 0.00 0.00 34 1018.6
20260503181629 18 136 3.2 17.7 0.00 0.00 0.00 35 1018.2
20260503181125 18 274 1.6 6.4 0.00 0.00 0.00 35 1018.6
20260503180622 17 303 4.8 9.7 0.00 0.00 0.00 35 1018.7
20260503180120 17 286 3.2 11.3 0.00 0.00 0.00 36 1018.7
20260503175617 17 272 0.0 9.7 0.00 0.00 0.00 36 1019.0
20260503175114 17 274 8.0 14.5 0.00 0.00 0.00 32 1019.0
20260503174611 18 234 1.6 4.8 0.00 0.00 0.00 36 1018.9
20260503174108 17 229 0.0 11.3 0.00 0.00 0.00 40 1018.9
20260503173602 17 250 1.6 9.7 0.00 0.00 0.00 35 1019.1
20260503173059 17 234 0.0 6.4 0.00 0.00 0.00 38 1019.1
20260503172556 17 259 3.2 12.9 0.00 0.00 0.00 36 1019.2
20260503172054 17 260 1.6 3.2 0.00 0.00 0.00 39 1019.4
20260503171550 17 284 1.6 14.5 0.00 0.00 0.00 34 1019.3
20260503171047 17 227 3.2 12.9 0.00 0.00 0.00 40 1019.4
20260503170543 17 204 4.8 9.7 0.00 0.00 0.00 38 1019.4
20260503150936 15 254 4.8 9.7 0.00 0.00 0.00 42 1021.1
20260503150433 15 269 3.2 14.5 0.00 0.00 0.00 40 1021.0
20260503131326 10 269 1.6 6.4 0.00 0.00 0.00 56 1020.9
20260503130823 10 245 1.6 6.4 0.00 0.00 0.00 59 1021.0
20260503130321 10 252 1.6 3.2 0.00 0.00 0.00 59 1021.1
20260503110714 -1 272 0.0 0.0 0.00 0.00 0.00 98 1020.0
20260503110211 -1 272 0.0 0.0 0.00 0.00 0.00 98 1020.1
20260503100138 -1 272 0.0 0.0 0.00 0.00 0.00 97 1020.0
20260503081527 -1 272 0.0 0.0 0.00 0.00 0.00 97 1019.6
20260503081025 -1 272 0.0 0.0 0.00 0.00 0.00 97 1019.6
20260503080520 -1 272 0.0 0.0 0.00 0.00 0.00 97 1019.6
20260503072454 -1 272 0.0 0.0 0.00 0.00 0.00 96 1019.5
20260503071951 -1 272 0.0 0.0 0.00 0.00 0.00 96 1019.6
20260503071448 -1 272 0.0 0.0 0.00 0.00 0.00 96 1019.5
20260503070944 -1 272 0.0 0.0 0.00 0.00 0.00 96 1019.7
20260503070441 -1 272 0.0 0.0 0.00 0.00 0.00 96 1019.6
20260503054855 0 272 0.0 0.0 0.00 0.00 0.00 95 1020.0
20260503054351 0 272 0.0 0.0 0.00 0.00 0.00 96 1020.0
20260503053849 0 272 0.0 0.0 0.00 0.00 0.00 96 1020.0
20260503053347 0 272 0.0 0.0 0.00 0.00 0.00 95 1019.9
20260503052843 0 272 0.0 0.0 0.00 0.00 0.00 95 1020.0
20260503052340 0 272 0.0 0.0 0.00 0.00 0.00 95 1020.0
20260503051836 0 272 0.0 0.0 0.00 0.00 0.00 95 1020.0
20260503051332 0 272 0.0 0.0 0.00 0.00 0.00 95 1020.1
20260503050830 0 272 0.0 0.0 0.00 0.00 0.00 95 1020.0
20260503050326 0 272 0.0 0.0 0.00 0.00 0.00 95 1019.9
20260503045824 0 272 0.0 0.0 0.00 0.00 0.00 95 1020.0
20260503045321 0 272 0.0 0.0 0.00 0.00 0.00 95 1019.8
20260503044817 0 272 0.0 0.0 0.00 0.00 0.00 95 1019.8
20260503044314 0 272 0.0 0.0 0.00 0.00 0.00 95 1019.9
20260503043811 0 272 0.0 0.0 0.00 0.00 0.00 95 1019.8
20260503043308 0 272 0.0 0.0 0.00 0.00 0.00 94 1019.7
20260503042804 0 272 0.0 0.0 0.00 0.00 0.00 94 1019.8
20260503042301 0 272 0.0 0.0 0.00 0.00 0.00 94 1019.7
20260503041757 1 272 0.0 0.0 0.00 0.00 0.00 94 1019.8
20260503041255 1 272 0.0 0.0 0.00 0.00 0.00 94 1019.6
20260503040752 0 272 0.0 0.0 0.00 0.00 0.00 94 1019.8
20260503040250 0 272 0.0 0.0 0.00 0.00 0.00 94 1019.7